STARLINK-32747, 62600

Orbit data source: Space-Track

STARLINK-32747, 62600 is a payload satellite owned by SpaceX/Seattle (US) in LEO that was launched on Mon, 13 Jan 2025 UTC via an FALCON 9 launch vehicle from the Air Force Eastern Test Range (AFETR). Payloads include a variety of satellites, spacecraft, and rockets equipped with specific instruments for various scientific and technological missions. These include communications satellites like Starlink; space stations such as the ISS; scientific satellites like the Hubble; Earth observation satellites from companies like Planet Labs, Umbra, and HawkEye 360; GPS; miniature CubeSats for education and research; and military/defense satellites.

Loading next visibility...
STARLINK-32747 details
Identifier
62600, 2025-008P
Orbit
LEO
Last TLE update8 hours ago
Origin
Flag of USSpaceX/Seattle (US)
ManufacturerSpaceX/Seattle
MissionOperational spacecraft
Bus & MotorSTARLINK V2M, Unknown motor
Mass730 kg wet, ~700 kg dry
Launch date (UTC)
2025-01-13 (3 weeks ago)
Launch vehicle
FALCON 9
Launch site
Air Force Eastern Test Range (AFETR)
Object type
Payload
Rocket body
Debris
Shape & HBRUnknown
Radar Cross SectionLarge (>1 m²)

Expand to show TLE details & history

TLE from 8 hours ago
0 STARLINK-32747
1 62600U 25008P   25035.83335648 -.01497107  00000-0 -29690-1 0  9992
2 62600  43.0002   8.0111 0001196 258.5630 348.2222 15.49108575  4677
Epoch: 2025-02-04T20:00Z
Definitive object data (Epoch: 2025-02-04T20:00:01.999Z)
Latitude-38.98311°
Longitude172.42842°
Altitude430.149 km
Speed7.654 km/s
True Right ascension16h 30m 40s
True Declination-38° 48' 25"
Sunlit
Object was in daylight at TLE epoch
Visualization TLE readout
Latitude-22.58061°
Longitude-95.51973°
Altitude427.353 km
Speed7.656 km/s
Apparent Right ascension20h 41m 55s
Apparent Declination-35° 38' 12"
Sunlit
Object is in daylight
Visualization observer readout
Local Sidereal Time06:06:38
Azimuth265.447° W
Elevation-59.264°
Doppler factor1
Orbital elements
Apogee altitude422.109 km
Perigee altitude420.483 km
Semi-major axis6,799.433 km
Eccentricity0.0001196
Inclination43.0002°
RAAN8.0111°
Arg. of periapsis258.563°
True anomaly348.2194°
Mean anomaly348.2222°
Eccentric anomaly348.2208°
Mean motion3.8711 °/min
BSTAR-0.02969
Orbital period93 mins
Loading maneuver chart data...
Loading historical data...
Loading historical data...
Loading historical data...
Loading historical data...
Loading historical data...
Loading historical data...
Loading historical data...

STARLINK-32747 Visibility forecast

Observer location: undefined°, undefined

Span
Click to sort rows by Start time (UTC) header in descending order
Start Az.
Max El. time (UTC)
Max El. Az.
Max El.
End time (UTC)
End Az.
6 mins2025-02-05 04:34:51.592Z288.843° WNW2025-02-05 04:37:51.592Z16.657° NNE36.436°2025-02-05 04:40:51.592Z78.99° E
4 mins2025-02-05 06:13:51.592Z284.184° WNW2025-02-05 06:15:51.592Z128.921° SE41.688°2025-02-05 06:17:51.592Z114.202° SE
4 mins2025-02-06 00:34:51.592Z180.498° SSW2025-02-06 00:35:51.592Z158.186° S19.546°2025-02-06 00:38:51.592Z96.053° ESE
5 mins2025-02-06 02:11:51.592Z252.616° W2025-02-06 02:13:51.592Z41.609° NE44.912°2025-02-06 02:16:51.592Z71.588° E
5 mins2025-02-06 03:49:51.592Z293.23° NW2025-02-06 03:51:51.592Z6.437° NNE36.68°2025-02-06 03:54:51.592Z74.664° E
|